Main page
METAR-TAF:

METAR-TAF

Airports :

Baker Municipal Airport

Baker, Montana, United States

latitude: 46-20-52N, longitude: 104-15-27W, elevation: 2968 ft

Current weather observation

The report was made 18 minutes ago, at 14:51 UTC
Wind 16 mph from the South
Temperature 46°F
Humidity 34%
Pressure 30.15 in. Hg
Visibility: 10 miles
Clear sky

METAR: KBHK 211451Z AUTO 19014KT 10SM CLR 08/M07 A3015 RMK AO2 SLP222 T00831072 58020

Time: 09:09 (15:09 UTC)


TAF: missing

Weather observations and forecasts of more than 4000 airports (METAR and TAF reports).

The available stations are represented by yellow and red dots on the map.

Hover mouse over dot to see the name of the station.

Then click to see weather observations and forecasts.

To change the map : click on the green buttons with a black cross to zoom in, on the green button with a dash to zoom out, or on the green arrows for adjacent maps.


METAR-TAF: